Probability
0 0 0 0 0 0 0 0 0 0 0 0 0 0 0 0 0 0 0 0 0 0 0 0 0 0 0 0 0 0 0 0 0 0 0 0 0 0
0 0 0 0 0 0 0 0 0 0 0 0 0 0 0 0 0 0 0 0 0 0 0 0 0 0 0 0 0 0 0 0 0 0 0 0 0 0
0 0 0 0 0 0 0 0 0 0 0 0 0 0 0 0 0 0 0 0 0 0 0 0 0 0 0 0 0 0 0 0 0 0 0 0 0 0
0 0 0 0 0 0 0 0 0 0 0 0 0 0 0 0 0 0 0 0 0 0 0 0 0 0 0 0 0 0 0 0 0 0 0 0 0 0
0 0 0 0 0 0 0 0 0 0 0 0 0 0 0 0 0 0 0 0 0 0 0 0 0 0 0 0 0 0 0 0 0 0 0 0 0 0
0 0 0 0 0 0 0 0 0 0 0 0 0 0 0 0 0 0 0 0 0 0 0 0 0 0 0 0 0 0 0 0 0 0 0 0 0 0
0 0 0 0 0 0 0 0 0 0 0 0 0 0 0 0 0 0 0 0 0 0 0 0 0 0 0 0 0 0 0 0 0 0 0 0 0 0
0 0 0 0 0 0 0 0 0 0 0 0 0 0 0 0 0 0 0 0 0 0 0 0 0 0 0 0 0 0 0 0 0 0 0 0 0 0
0 0 0 0 0 0 0 0 0 0 0 0 0 0 0 0 0 0 0 0 0 0 0 0 0 0 0 0 0 0 0 0 0 0 0 0 0 0
0 0 0 0 0 0 0 0 0 0 0 0 0 0 0 0 0 0 0 0 0 0 0 0 0 0 0 0 0 0 0 0 0 0 0 0 0 0
0 0 0 0 0 0 0 0 0 0 0 0 0 0 0 0 0 0 0 0 0 0 0 0 0 0 0 0 0 0 0 0 0 0 0 0 0 0
0 0 0 0 0 0 0 0 0 0 0 0 0 0 0 0 0 0 0 0 0 0 0 0 0 0 0 0 0 0 0 0 0 0 0 0 0 0
0 0 0 0 0 0 0 0 0 0 0 0 0 0 0 0 0 0 0 0 0 0 0 0 0 0 0 0 0 0 0 0 0 0 0 0 0 0
0 0 0 0 0 0 0 0 0 0 0 0 0 0 0 0 0 0 0 0 0 0 0 0 0 0 0 0 0 0 0 0 0 0 0 0 0 0
0 0 0 0 0 0 0 0 0 0 0 0 0 0 0 0 0 0 0 0 0 0 0 0 0 0 0 0 0 0 0 0 0 0 0 0 0 0
0 0 0 0 0 0 0 0 0 0 0 0 0 0 0 0 0 0 0 0 0 0 0 0 0 0 0 0 0 0 0 0 0 0 0 0 0 0
0 0 0 0 0 0 0 0 0 0 0 0 0 0 0 0 0 0 0 0 0 0 0 0 0 0 0 0 0 0 0 0 0 0 0 0 0 0
0 0 0 0 0 0 0 0 0 0 0 0 0 0 0 0 0 0 0 0 0 0 0 0 0 0 0 0 0 0 0 0 0 0 0 0 0 0
0 0 0 0 0 0 0 0 0 0 0 0 0 0 0 0 0 0 0 0 0 0 0 0 0 0 0 0 0 0 0 0 0 0 0 0 0 0
0 0 0 0 0 0 0 0 0 0 0 0 0 0 0 0 0 0 0 0 0 0 0 0 0 0 0 0 0 0 0 0 0 0 0 0 0 0
0 0 0 0 0 0 0 0 0 0 0 0 0 0 0 0 0 0 0 0 0 0 0 0 0 0 0 0 0 0 0 0 0 0 0 0 0 0
0 0 0 0 0 0 0 0 0 0 0 0 0 0 0 0 0 0 0 0 0 0 0 0 0 0 0 0 0 0 0 0 0 0 0 0 0 0
0 0 0 0 0 0 0 0 0 0 0 0 0 0 0 0 0 0 0 0 0 0 0 0 0 0 0 0 0 0 0 0 0 0 0 0 0 0
Wind_Speed
3 3 3 3 3 3 4 4 5 8 6 5 4 4 4 4 6 5 6 11 16 16 18 19 22 23 24 24 25 25 26 25 25 25 25 25 25 24
2 2 2 3 4 4 4 5 5 7 8 5 5 5 6 9 12 8 8 17 17 18 19 18 18 20 22 23 24 25 25 25 25 25 25 25 24 24
3 4 4 4 3 4 4 5 5 6 8 8 6 6 8 8 8 8 9 9 9 15 16 17 17 18 21 23 24 24 24 24 24 24 24 24 23 23
5 5 5 5 5 4 4 5 5 6 7 10 8 8 8 9 8 9 10 10 8 14 17 18 19 20 20 20 22 22 22 22 23 24 23 23 22 21
5 5 5 5 5 4 5 5 5 6 6 8 10 7 7 8 9 10 10 8 10 12 15 16 17 18 18 18 19 19 19 19 20 22 22 22 21 20
5 5 5 5 5 5 5 5 6 7 7 8 9 8 8 8 8 7 8 7 9 11 13 14 16 16 17 17 17 18 18 18 18 19 19 18 18 18
6 5 6 8 8 5 6 6 7 7 8 9 9 10 9 8 8 7 9 9 9 8 8 9 9 8 9 11 14 16 16 16 17 18 17 17 16 16
6 6 7 7 6 7 9 10 11 10 10 9 10 11 12 10 8 8 8 9 7 4 7 10 9 8 7 7 10 13 13 14 15 15 16 15 15 15
6 6 7 8 7 5 8 12 12 14 14 11 11 12 12 10 10 10 9 10 10 9 8 10 8 8 7 8 11 12 12 12 12 12 13 13 14 14
5 6 6 6 5 5 9 11 10 10 11 10 9 10 10 10 9 10 10 10 9 8 7 7 7 7 8 6 8 9 9 10 10 10 11 11 12 12
7 7 6 6 2 6 9 11 12 10 12 13 13 13 15 17 13 7 7 8 8 7 4 4 4 7 7 6 5 7 9 10 10 10 10 10 11 10
7 6 6 4 6 9 9 10 12 12 12 13 13 12 10 9 8 6 6 7 6 5 2 3 4 4 5 4 5 6 5 7 9 10 10 10 9 6
8 7 5 5 10 13 11 10 12 13 12 11 10 8 6 4 4 4 4 4 5 5 3 4 3 3 4 5 5 5 5 4 4 5 7 9 10 8
8 7 7 13 16 16 12 12 15 13 8 8 7 5 5 4 4 5 5 4 4 5 6 5 4 5 5 4 5 5 6 5 3 2 2 5 8 9
7 11 14 16 15 11 10 13 11 7 6 6 5 4 4 4 4 4 5 5 5 5 5 5 5 5 3 4 6 5 5 4 3 2 1 2 3 4
8 11 14 13 11 9 9 7 5 5 5 5 5 3 3 3 3 3 4 5 5 5 5 6 5 4 2 5 6 6 6 4 3 2 1 1 2 2
9 8 7 7 6 6 6 6 5 5 5 4 4 4 3 3 3 3 3 4 4 5 7 7 6 2 1 3 7 7 6 4 3 2 1 2 2 2
8 6 7 7 7 7 7 7 6 5 4 3 3 3 3 3 3 3 3 4 4 5 6 6 6 5 3 1 6 8 6 5 4 4 4 3 4 4
5 5 6 6 7 7 7 6 6 5 3 2 3 3 3 2 3 3 4 4 4 4 4 5 6 6 7 7 7 12 8 5 5 5 6 5 5 5
4 5 6 6 7 7 7 6 5 4 3 2 2 2 2 2 2 2 3 4 3 4 4 5 6 6 6 6 5 7 14 9 5 5 5 5 5 7
5 5 6 7 7 7 6 5 4 4 4 3 2 1 1 1 2 2 1 2 2 3 4 4 3 5 4 3 4 7 8 13 13 7 4 4 4 4
5 6 7 7 6 6 5 5 4 4 5 4 3 2 2 1 2 2 1 1 1 1 2 1 1 2 4 6 7 8 8 8 12 18 18 12 4 3
6 6 7 7 6 5 6 6 7 6 6 6 5 4 3 3 3 2 2 1 1 1 1 1 1 2 3 4 5 5 8 8 8 10 11 16 17 15
Wind_Direction
6 20 7 339 327 341 335 320 308 305 303 312 321 339 343 340 334 320 310 304 300 295 286 282 280 280 279 279 278 279 279 278 277 276 275 275 274 273
1 5 345 335 356 332 328 325 314 304 303 314 319 330 340 325 316 316 304 299 292 286 283 281 278 277 277 277 276 276 276 276 275 274 272 271 270 269
349 0 360 347 336 338 324 314 317 322 313 311 311 317 322 311 304 299 296 289 287 287 289 289 282 277 275 274 273 272 272 273 274 273 272 271 269 267
4 358 348 339 343 325 328 325 320 314 306 308 310 307 304 302 297 297 299 298 300 298 293 289 285 280 275 271 269 266 265 265 267 268 269 269 269 268
355 344 334 325 317 324 325 312 311 313 312 305 303 300 298 297 298 296 297 296 298 298 298 295 294 290 284 277 270 263 257 254 256 258 260 261 264 266
332 321 313 313 315 322 312 305 315 317 307 301 299 300 298 295 294 299 301 298 299 301 300 300 297 296 290 281 276 269 259 252 249 250 249 250 252 256
317 315 313 313 305 296 297 310 309 300 301 299 299 300 299 302 302 301 299 301 294 290 294 297 297 293 292 287 282 275 265 256 250 246 243 241 239 240
317 322 314 304 323 306 291 293 288 288 293 294 294 293 295 298 300 301 301 302 298 293 299 299 296 293 291 287 286 281 269 260 252 247 242 237 234 233
314 318 316 318 326 333 322 309 299 293 283 280 284 287 292 297 300 302 300 299 297 298 298 296 296 295 296 303 304 294 279 267 257 250 244 236 231 230
320 309 307 311 338 344 320 309 299 298 295 292 283 288 294 297 297 295 295 293 288 287 286 289 296 301 307 304 302 296 292 282 269 257 247 237 231 230
318 310 310 305 343 329 315 307 306 304 303 303 300 293 289 287 285 289 292 294 298 301 302 290 296 308 303 298 305 303 292 285 275 261 249 238 230 225
314 311 312 306 318 314 312 309 304 305 312 314 310 306 297 293 294 282 288 297 301 299 319 312 293 308 299 291 307 307 298 285 273 261 249 236 218 211
316 318 319 314 312 308 303 292 286 296 304 301 300 300 305 312 318 313 303 297 304 298 305 306 286 280 275 291 296 301 305 304 284 259 243 229 211 203
308 315 319 319 312 306 300 290 292 297 292 292 299 310 317 323 325 324 322 315 297 292 297 303 289 293 298 295 295 303 307 297 286 272 244 205 209 215
308 316 313 306 305 301 298 302 302 294 296 306 316 320 319 322 332 337 333 327 319 313 311 304 303 303 310 311 309 303 305 299 302 291 268 185 183 187
335 322 313 303 301 298 302 305 300 302 314 317 320 318 323 339 357 349 339 337 334 330 326 327 324 326 333 323 315 314 314 305 305 303 273 170 173 186
321 309 310 321 329 332 330 327 325 329 334 333 330 336 344 357 358 348 339 337 342 344 347 346 340 333 141 349 335 333 330 331 341 357 42 87 84 82
313 310 319 326 330 329 327 326 327 330 332 334 342 352 2 6 0 351 351 351 350 352 354 350 348 344 329 221 7 348 348 355 7 22 37 58 65 61
307 312 321 325 323 321 320 320 319 321 327 347 6 7 12 12 3 356 355 351 353 358 358 358 2 3 10 9 1 7 5 4 15 34 42 48 57 60
327 326 325 321 319 317 318 320 323 334 349 2 18 21 17 6 357 347 351 355 356 6 12 13 13 11 11 0 351 4 17 21 20 33 42 51 65 75
332 327 320 315 313 314 317 324 334 352 359 0 14 12 350 336 336 330 340 346 348 12 23 22 13 11 4 6 28 29 29 37 44 40 22 40 47 47
328 323 318 313 315 322 332 342 358 4 1 360 355 348 335 322 325 330 334 344 355 36 55 57 51 36 36 41 42 36 33 37 46 50 47 47 55 56
323 321 318 322 334 341 348 356 7 9 3 355 353 349 350 347 338 338 338 354 20 80 105 99 85 63 56 54 52 48 46 44 45 51 52 48 63 73